QPF
0.00 0.00 0.00 0.00 0.00 0.00 0.00 0.00 0.00 0.00 0.00 0.00 0.00 0.00 0.00 0.00 0.00 0.00 0.00 0.00 0.00 0.00 0.00 0.00 0.00 0.00 0.00 0.00 0.00 0.00 0.00 0.00 0.00 0.00 0.00 0.00 0.00 0.00 0.00 0.00 0.00 0.00 0.00 0.00 0.00 0.00 0.00 0.00 0.00
0.00 0.00 0.00 0.00 0.00 0.00 0.00 0.00 0.00 0.00 0.00 0.00 0.00 0.00 0.00 0.00 0.00 0.00 0.00 0.00 0.00 0.00 0.00 0.00 0.00 0.00 0.00 0.00 0.00 0.00 0.00 0.00 0.00 0.00 0.00 0.00 0.00 0.00 0.00 0.00 0.00 0.00 0.00 0.00 0.00 0.00 0.00 0.00 0.00
0.00 0.00 0.00 0.00 0.00 0.00 0.00 0.00 0.00 0.00 0.00 0.00 0.00 0.00 0.00 0.00 0.00 0.00 0.00 0.00 0.00 0.00 0.00 0.00 0.00 0.00 0.00 0.00 0.00 0.00 0.00 0.00 0.00 0.00 0.00 0.00 0.00 0.00 0.00 0.00 0.00 0.00 0.00 0.00 0.00 0.00 0.00 0.00 0.00
0.00 0.00 0.00 0.00 0.00 0.00 0.00 0.00 0.00 0.00 0.00 0.00 0.00 0.00 0.00 0.00 0.00 0.00 0.00 0.00 0.00 0.00 0.00 0.00 0.00 0.00 0.00 0.00 0.00 0.00 0.00 0.00 0.00 0.00 0.00 0.00 0.00 0.00 0.00 0.00 0.00 0.00 0.00 0.00 0.00 0.00 0.00 0.00 0.00
0.00 0.00 0.00 0.00 0.00 0.00 0.00 0.00 0.00 0.00 0.00 0.00 0.00 0.00 0.00 0.00 0.00 0.00 0.00 0.00 0.00 0.00 0.00 0.00 0.00 0.00 0.00 0.00 0.00 0.00 0.00 0.00 0.00 0.00 0.00 0.00 0.00 0.00 0.00 0.00 0.00 0.00 0.00 0.00 0.00 0.00 0.00 0.00 0.00
0.00 0.00 0.00 0.00 0.00 0.00 0.00 0.00 0.00 0.00 0.00 0.00 0.00 0.00 0.00 0.00 0.00 0.00 0.00 0.00 0.00 0.00 0.00 0.00 0.00 0.00 0.00 0.00 0.00 0.00 0.00 0.00 0.00 0.00 0.00 0.00 0.00 0.00 0.00 0.00 0.00 0.00 0.00 0.00 0.00 0.00 0.00 0.00 0.00
0.00 0.00 0.00 0.00 0.00 0.00 0.00 0.00 0.00 0.00 0.00 0.00 0.00 0.00 0.00 0.00 0.00 0.00 0.00 0.00 0.00 0.00 0.00 0.00 0.00 0.00 0.00 0.00 0.00 0.00 0.00 0.00 0.00 0.00 0.00 0.00 0.00 0.00 0.00 0.00 0.00 0.00 0.00 0.00 0.00 0.00 0.00 0.00 0.00
0.00 0.00 0.00 0.00 0.00 0.00 0.00 0.00 0.00 0.00 0.00 0.00 0.00 0.00 0.00 0.00 0.00 0.00 0.00 0.00 0.00 0.00 0.00 0.00 0.00 0.00 0.00 0.00 0.00 0.00 0.00 0.00 0.00 0.00 0.00 0.00 0.00 0.00 0.00 0.00 0.00 0.00 0.00 0.00 0.00 0.00 0.00 0.00 0.00
0.00 0.00 0.00 0.00 0.00 0.00 0.00 0.00 0.00 0.00 0.00 0.00 0.00 0.00 0.00 0.00 0.00 0.00 0.00 0.00 0.00 0.00 0.00 0.00 0.00 0.00 0.00 0.00 0.00 0.00 0.00 0.00 0.00 0.00 0.00 0.00 0.00 0.00 0.00 0.00 0.00 0.00 0.00 0.00 0.00 0.00 0.00 0.00 0.00
0.00 0.00 0.00 0.00 0.00 0.00 0.00 0.00 0.00 0.00 0.00 0.00 0.00 0.00 0.00 0.00 0.00 0.00 0.00 0.00 0.00 0.00 0.00 0.00 0.00 0.00 0.00 0.00 0.00 0.00 0.00 0.00 0.00 0.00 0.00 0.00 0.00 0.00 0.00 0.00 0.00 0.00 0.00 0.00 0.00 0.00 0.00 0.00 0.00
0.00 0.00 0.00 0.00 0.00 0.00 0.00 0.00 0.00 0.00 0.00 0.00 0.00 0.00 0.00 0.00 0.00 0.00 0.00 0.00 0.00 0.00 0.00 0.00 0.00 0.00 0.00 0.00 0.00 0.00 0.00 0.00 0.00 0.00 0.00 0.00 0.00 0.00 0.00 0.00 0.00 0.00 0.00 0.00 0.00 0.00 0.00 0.00 0.00
0.00 0.00 0.00 0.00 0.00 0.00 0.00 0.00 0.00 0.00 0.00 0.00 0.00 0.00 0.00 0.00 0.00 0.00 0.00 0.00 0.00 0.00 0.00 0.00 0.00 0.00 0.00 0.00 0.00 0.00 0.00 0.00 0.00 0.00 0.00 0.00 0.00 0.00 0.00 0.00 0.00 0.00 0.00 0.00 0.00 0.00 0.00 0.00 0.00
0.00 0.00 0.00 0.00 0.00 0.00 0.00 0.00 0.00 0.00 0.00 0.00 0.00 0.00 0.00 0.00 0.00 0.00 0.00 0.00 0.00 0.00 0.00 0.00 0.00 0.00 0.00 0.00 0.00 0.00 0.00 0.00 0.00 0.00 0.00 0.00 0.00 0.00 0.00 0.00 0.00 0.00 0.00 0.00 0.00 0.00 0.00 0.00 0.00
0.00 0.00 0.00 0.00 0.00 0.00 0.00 0.00 0.00 0.00 0.00 0.00 0.00 0.00 0.00 0.00 0.00 0.00 0.00 0.00 0.00 0.00 0.00 0.00 0.00 0.00 0.00 0.00 0.00 0.00 0.00 0.00 0.00 0.00 0.00 0.00 0.00 0.00 0.00 0.00 0.00 0.00 0.00 0.00 0.00 0.00 0.00 0.00 0.00
0.00 0.00 0.00 0.00 0.00 0.00 0.00 0.00 0.00 0.00 0.00 0.00 0.00 0.00 0.00 0.00 0.00 0.00 0.00 0.00 0.00 0.00 0.00 0.00 0.00 0.00 0.00 0.00 0.00 0.00 0.00 0.00 0.00 0.00 0.00 0.00 0.00 0.00 0.00 0.00 0.00 0.00 0.00 0.00 0.00 0.00 0.00 0.00 0.00
0.00 0.00 0.00 0.00 0.00 0.00 0.00 0.00 0.00 0.00 0.00 0.00 0.00 0.00 0.00 0.00 0.00 0.00 0.00 0.00 0.00 0.00 0.00 0.00 0.00 0.00 0.00 0.00 0.00 0.00 0.00 0.00 0.00 0.00 0.00 0.00 0.00 0.00 0.00 0.00 0.00 0.00 0.00 0.00 0.00 0.00 0.00 0.00 0.00
0.00 0.00 0.00 0.00 0.00 0.00 0.00 0.00 0.00 0.00 0.00 0.00 0.00 0.00 0.00 0.00 0.00 0.00 0.00 0.00 0.00 0.00 0.00 0.00 0.00 0.00 0.00 0.00 0.00 0.00 0.00 0.00 0.00 0.00 0.00 0.00 0.00 0.00 0.00 0.00 0.00 0.00 0.00 0.00 0.00 0.00 0.00 0.00 0.00
0.00 0.00 0.00 0.00 0.00 0.00 0.00 0.00 0.00 0.00 0.00 0.00 0.00 0.00 0.00 0.00 0.00 0.00 0.00 0.00 0.00 0.00 0.00 0.00 0.00 0.00 0.00 0.00 0.00 0.00 0.00 0.00 0.00 0.00 0.00 0.00 0.00 0.00 0.00 0.00 0.00 0.00 0.00 0.00 0.00 0.00 0.00 0.00 0.00
0.00 0.00 0.00 0.00 0.00 0.00 0.00 0.00 0.00 0.00 0.00 0.00 0.00 0.00 0.00 0.00 0.00 0.00 0.00 0.00 0.00 0.00 0.00 0.00 0.00 0.00 0.00 0.00 0.00 0.00 0.00 0.00 0.00 0.00 0.00 0.00 0.00 0.00 0.00 0.00 0.00 0.00 0.00 0.00 0.00 0.00 0.00 0.00 0.00
0.00 0.00 0.00 0.00 0.00 0.00 0.00 0.00 0.00 0.00 0.00 0.00 0.00 0.00 0.00 0.00 0.00 0.00 0.00 0.00 0.00 0.00 0.00 0.00 0.00 0.00 0.00 0.00 0.00 0.00 0.00 0.00 0.00 0.00 0.00 0.00 0.00 0.00 0.00 0.00 0.00 0.00 0.00 0.00 0.00 0.00 0.00 0.00 0.00
0.00 0.00 0.00 0.00 0.00 0.00 0.00 0.00 0.00 0.00 0.00 0.00 0.00 0.00 0.00 0.00 0.00 0.00 0.00 0.00 0.00 0.00 0.00 0.00 0.00 0.00 0.00 0.00 0.00 0.00 0.00 0.00 0.00 0.00 0.00 0.00 0.00 0.00 0.00 0.00 0.00 0.00 0.00 0.00 0.00 0.00 0.00 0.00 0.00
0.00 0.00 0.00 0.00 0.00 0.00 0.00 0.00 0.00 0.00 0.00 0.00 0.00 0.00 0.00 0.00 0.00 0.00 0.00 0.00 0.00 0.00 0.00 0.00 0.00 0.00 0.00 0.00 0.00 0.00 0.00 0.00 0.00 0.00 0.00 0.00 0.00 0.00 0.00 0.00 0.00 0.00 0.00 0.00 0.00 0.00 0.00 0.00 0.00
0.00 0.00 0.00 0.00 0.00 0.00 0.00 0.00 0.00 0.00 0.00 0.00 0.00 0.00 0.00 0.00 0.00 0.00 0.00 0.00 0.00 0.00 0.00 0.00 0.00 0.00 0.00 0.00 0.00 0.00 0.00 0.00 0.00 0.00 0.00 0.00 0.00 0.00 0.00 0.00 0.00 0.00 0.00 0.00 0.00 0.00 0.00 0.00 0.00
0.00 0.00 0.00 0.00 0.00 0.00 0.00 0.00 0.00 0.00 0.00 0.00 0.00 0.00 0.00 0.00 0.00 0.00 0.00 0.00 0.00 0.00 0.00 0.00 0.00 0.00 0.00 0.00 0.00 0.00 0.00 0.00 0.00 0.00 0.00 0.00 0.00 0.00 0.00 0.00 0.00 0.00 0.00 0.00 0.00 0.00 0.00 0.00 0.00
0.00 0.00 0.00 0.00 0.00 0.00 0.00 0.00 0.00 0.00 0.00 0.00 0.00 0.00 0.00 0.00 0.00 0.00 0.00 0.00 0.00 0.00 0.00 0.00 0.00 0.00 0.00 0.00 0.00 0.00 0.00 0.00 0.00 0.00 0.00 0.00 0.00 0.00 0.00 0.00 0.00 0.00 0.00 0.00 0.00 0.00 0.00 0.00 0.00
0.00 0.00 0.00 0.00 0.00 0.00 0.00 0.00 0.00 0.00 0.00 0.00 0.00 0.00 0.00 0.00 0.00 0.00 0.00 0.00 0.00 0.00 0.00 0.00 0.00 0.00 0.00 0.00 0.00 0.00 0.00 0.00 0.00 0.00 0.00 0.00 0.00 0.00 0.00 0.00 0.00 0.00 0.00 0.00 0.00 0.00 0.00 0.00 0.00
0.00 0.00 0.00 0.00 0.00 0.00 0.00 0.00 0.00 0.00 0.00 0.00 0.00 0.00 0.00 0.00 0.00 0.00 0.00 0.00 0.00 0.00 0.00 0.00 0.00 0.00 0.00 0.00 0.00 0.00 0.00 0.00 0.00 0.00 0.00 0.00 0.00 0.00 0.00 0.00 0.00 0.00 0.00 0.00 0.00 0.00 0.00 0.00 0.00
0.00 0.00 0.00 0.00 0.00 0.00 0.00 0.00 0.00 0.00 0.00 0.00 0.00 0.00 0.00 0.00 0.00 0.00 0.00 0.00 0.00 0.00 0.00 0.00 0.00 0.00 0.00 0.00 0.00 0.00 0.00 0.00 0.00 0.00 0.00 0.00 0.00 0.00 0.00 0.00 0.00 0.00 0.00 0.00 0.00 0.00 0.00 0.00 0.00
0.00 0.00 0.00 0.00 0.00 0.00 0.00 0.00 0.00 0.00 0.00 0.00 0.00 0.00 0.00 0.00 0.00 0.00 0.00 0.00 0.00 0.00 0.00 0.00 0.00 0.00 0.00 0.00 0.00 0.00 0.00 0.00 0.00 0.00 0.00 0.00 0.00 0.00 0.00 0.00 0.00 0.00 0.00 0.00 0.00 0.00 0.00 0.00 0.00
0.00 0.00 0.00 0.00 0.00 0.00 0.00 0.00 0.00 0.00 0.00 0.00 0.00 0.00 0.00 0.00 0.00 0.00 0.00 0.00 0.00 0.00 0.00 0.00 0.00 0.00 0.00 0.00 0.00 0.00 0.00 0.00 0.00 0.00 0.00 0.00 0.00 0.00 0.00 0.00 0.00 0.00 0.00 0.00 0.00 0.00 0.00 0.00 0.00
MSLP
1015.60 1016.43 1017.50 1018.66 1019.74 1020.61 1021.18 1021.40 1021.31 1020.99 1020.57 1020.15 1019.84 1019.69 1019.70 1019.84 1020.05 1020.27 1020.45 1020.59 1020.68 1020.78 1020.91 1021.10 1021.39 1021.74 1022.14 1022.53 1022.88 1023.18 1023.40 1023.58 1023.73 1023.88 1024.07 1024.31 1024.58 1024.86 1025.12 1025.33 1025.46 1025.51 1025.49 1025.43 1025.34 1025.27 1025.22 1025.22 1025.24
1016.00 1017.01 1018.20 1019.39 1020.42 1021.16 1021.53 1021.52 1021.19 1020.64 1020.02 1019.46 1019.06 1018.86 1018.86 1019.02 1019.26 1019.53 1019.78 1019.98 1020.14 1020.30 1020.50 1020.76 1021.10 1021.50 1021.93 1022.36 1022.75 1023.07 1023.34 1023.56 1023.77 1023.99 1024.24 1024.52 1024.83 1025.13 1025.40 1025.61 1025.73 1025.77 1025.74 1025.67 1025.59 1025.52 1025.50 1025.51 1025.57
1016.51 1017.64 1018.85 1020.00 1020.91 1021.46 1021.61 1021.37 1020.83 1020.11 1019.37 1018.74 1018.32 1018.13 1018.16 1018.36 1018.66 1018.98 1019.27 1019.52 1019.74 1019.96 1020.21 1020.52 1020.90 1021.34 1021.80 1022.25 1022.66 1023.01 1023.30 1023.55 1023.79 1024.04 1024.32 1024.62 1024.94 1025.24 1025.49 1025.69 1025.80 1025.83 1025.81 1025.76 1025.71 1025.69 1025.70 1025.76 1025.86
1017.11 1018.28 1019.45 1020.47 1021.19 1021.53 1021.45 1021.00 1020.29 1019.47 1018.69 1018.07 1017.69 1017.57 1017.67 1017.93 1018.28 1018.64 1018.97 1019.25 1019.49 1019.75 1020.03 1020.38 1020.79 1021.25 1021.72 1022.18 1022.59 1022.95 1023.25 1023.51 1023.76 1024.02 1024.30 1024.60 1024.90 1025.18 1025.42 1025.60 1025.71 1025.76 1025.77 1025.77 1025.78 1025.81 1025.88 1025.99 1026.13
1017.76 1018.90 1019.96 1020.79 1021.29 1021.38 1021.09 1020.48 1019.67 1018.82 1018.07 1017.53 1017.25 1017.22 1017.41 1017.74 1018.13 1018.51 1018.85 1019.13 1019.39 1019.65 1019.95 1020.31 1020.74 1021.20 1021.68 1022.13 1022.53 1022.87 1023.17 1023.43 1023.68 1023.93 1024.20 1024.49 1024.77 1025.03 1025.26 1025.43 1025.55 1025.64 1025.70 1025.77 1025.84 1025.94 1026.08 1026.24 1026.41
1018.39 1019.43 1020.32 1020.94 1021.20 1021.08 1020.61 1019.89 1019.05 1018.25 1017.59 1017.17 1017.02 1017.11 1017.39 1017.77 1018.18 1018.55 1018.87 1019.14 1019.38 1019.63 1019.93 1020.30 1020.72 1021.17 1021.63 1022.06 1022.44 1022.77 1023.05 1023.29 1023.54 1023.79 1024.06 1024.34 1024.61 1024.87 1025.09 1025.28 1025.43 1025.56 1025.69 1025.81 1025.96 1026.13 1026.32 1026.51 1026.70
1018.91 1019.82 1020.51 1020.91 1020.95 1020.65 1020.06 1019.30 1018.49 1017.78 1017.26 1016.99 1016.98 1017.18 1017.53 1017.94 1018.34 1018.68 1018.96 1019.19 1019.40 1019.64 1019.93 1020.28 1020.69 1021.13 1021.56 1021.96 1022.32 1022.62 1022.88 1023.13 1023.38 1023.64 1023.92 1024.22 1024.50 1024.78 1025.02 1025.23 1025.41 1025.59 1025.76 1025.95 1026.15 1026.37 1026.59 1026.80 1026.98
1019.26 1020.00 1020.50 1020.70 1020.56 1020.13 1019.49 1018.74 1018.02 1017.44 1017.07 1016.95 1017.06 1017.35 1017.73 1018.13 1018.49 1018.79 1019.01 1019.20 1019.38 1019.61 1019.89 1020.24 1020.64 1021.05 1021.46 1021.83 1022.16 1022.44 1022.70 1022.95 1023.22 1023.52 1023.84 1024.17 1024.49 1024.79 1025.06 1025.30 1025.51 1025.71 1025.92 1026.14 1026.38 1026.62 1026.85 1027.05 1027.22
1019.41 1019.98 1020.29 1020.32 1020.06 1019.56 1018.92 1018.23 1017.62 1017.19 1016.97 1016.97 1017.17 1017.49 1017.87 1018.23 1018.54 1018.77 1018.94 1019.09 1019.26 1019.48 1019.77 1020.12 1020.52 1020.93 1021.32 1021.67 1021.97 1022.24 1022.50 1022.78 1023.08 1023.43 1023.80 1024.18 1024.56 1024.90 1025.20 1025.46 1025.69 1025.90 1026.12 1026.34 1026.58 1026.81 1027.03 1027.22 1027.36
1019.35 1019.77 1019.93 1019.83 1019.49 1018.97 1018.37 1017.77 1017.29 1016.98 1016.88 1016.97 1017.20 1017.52 1017.85 1018.15 1018.37 1018.54 1018.66 1018.80 1018.97 1019.21 1019.53 1019.91 1020.33 1020.74 1021.13 1021.46 1021.76 1022.03 1022.30 1022.61 1022.96 1023.36 1023.79 1024.23 1024.66 1025.04 1025.37 1025.63 1025.86 1026.07 1026.26 1026.47 1026.68 1026.90 1027.09 1027.26 1027.38
1019.17 1019.45 1019.49 1019.29 1018.91 1018.41 1017.87 1017.37 1016.99 1016.78 1016.75 1016.87 1017.09 1017.35 1017.61 1017.81 1017.96 1018.06 1018.15 1018.28 1018.48 1018.77 1019.14 1019.57 1020.03 1020.47 1020.86 1021.21 1021.50 1021.79 1022.08 1022.42 1022.81 1023.26 1023.76 1024.25 1024.72 1025.14 1025.48 1025.75 1025.96 1026.14 1026.31 1026.48 1026.66 1026.84 1027.02 1027.17 1027.29
1018.97 1019.12 1019.06 1018.81 1018.41 1017.94 1017.45 1017.03 1016.73 1016.58 1016.56 1016.66 1016.82 1016.99 1017.14 1017.24 1017.30 1017.35 1017.42 1017.57 1017.81 1018.16 1018.60 1019.09 1019.61 1020.09 1020.52 1020.88 1021.20 1021.50 1021.82 1022.19 1022.62 1023.11 1023.65 1024.18 1024.68 1025.12 1025.47 1025.73 1025.92 1026.07 1026.21 1026.35 1026.50 1026.67 1026.83 1026.98 1027.09
1018.84 1018.89 1018.75 1018.46 1018.06 1017.61 1017.17 1016.80 1016.53 1016.38 1016.33 1016.36 1016.42 1016.47 1016.50 1016.50 1016.48 1016.48 1016.54 1016.71 1017.00 1017.41 1017.92 1018.49 1019.06 1019.60 1020.07 1020.48 1020.83 1021.16 1021.50 1021.89 1022.35 1022.87 1023.42 1023.98 1024.49 1024.93 1025.28 1025.54 1025.73 1025.86 1025.98 1026.11 1026.25 1026.41 1026.57 1026.73 1026.85
1018.86 1018.83 1018.63 1018.31 1017.90 1017.47 1017.05 1016.70 1016.42 1016.24 1016.12 1016.05 1015.98 1015.91 1015.82 1015.71 1015.62 1015.57 1015.63 1015.81 1016.13 1016.58 1017.15 1017.78 1018.41 1019.00 1019.53 1019.98 1020.38 1020.74 1021.11 1021.53 1021.99 1022.51 1023.07 1023.61 1024.13 1024.57 1024.92 1025.19 1025.38 1025.53 1025.66 1025.80 1025.95 1026.13 1026.31 1026.47 1026.61
1019.05 1018.95 1018.71 1018.36 1017.96 1017.53 1017.12 1016.75 1016.44 1016.19 1015.98 1015.80 1015.62 1015.43 1015.22 1015.02 1014.86 1014.77 1014.80 1014.97 1015.29 1015.76 1016.35 1017.01 1017.68 1018.32 1018.90 1019.41 1019.86 1020.27 1020.67 1021.09 1021.55 1022.06 1022.59 1023.12 1023.61 1024.06 1024.42 1024.70 1024.93 1025.12 1025.29 1025.47 1025.66 1025.86 1026.06 1026.24 1026.38
1019.36 1019.21 1018.94 1018.59 1018.19 1017.76 1017.34 1016.95 1016.59 1016.27 1015.97 1015.69 1015.40 1015.12 1014.82 1014.55 1014.33 1014.19 1014.17 1014.30 1014.59 1015.03 1015.60 1016.25 1016.93 1017.61 1018.24 1018.80 1019.30 1019.75 1020.18 1020.61 1021.06 1021.54 1022.03 1022.52 1022.99 1023.43 1023.81 1024.13 1024.41 1024.66 1024.90 1025.14 1025.38 1025.62 1025.84 1026.02 1026.15
1019.68 1019.51 1019.25 1018.91 1018.52 1018.11 1017.69 1017.27 1016.87 1016.49 1016.11 1015.75 1015.39 1015.04 1014.69 1014.37 1014.09 1013.90 1013.82 1013.88 1014.09 1014.46 1014.96 1015.56 1016.23 1016.91 1017.57 1018.18 1018.73 1019.23 1019.69 1020.12 1020.54 1020.97 1021.41 1021.86 1022.29 1022.71 1023.11 1023.48 1023.82 1024.14 1024.46 1024.77 1025.07 1025.34 1025.58 1025.77 1025.87
1019.91 1019.75 1019.52 1019.23 1018.89 1018.51 1018.10 1017.67 1017.24 1016.81 1016.38 1015.97 1015.57 1015.19 1014.82 1014.47 1014.17 1013.93 1013.78 1013.75 1013.85 1014.10 1014.50 1015.02 1015.63 1016.29 1016.96 1017.61 1018.20 1018.73 1019.20 1019.62 1020.02 1020.39 1020.77 1021.15 1021.54 1021.94 1022.34 1022.74 1023.14 1023.54 1023.92 1024.30 1024.65 1024.96 1025.21 1025.38 1025.46
1019.96 1019.86 1019.70 1019.48 1019.21 1018.89 1018.51 1018.09 1017.64 1017.18 1016.73 1016.30 1015.90 1015.52 1015.16 1014.82 1014.50 1014.23 1014.01 1013.88 1013.86 1013.97 1014.24 1014.65 1015.18 1015.79 1016.45 1017.11 1017.72 1018.28 1018.75 1019.15 1019.50 1019.81 1020.10 1020.41 1020.73 1021.09 1021.48 1021.90 1022.34 1022.79 1023.23 1023.65 1024.03 1024.37 1024.62 1024.79 1024.85
1019.83 1019.81 1019.75 1019.64 1019.47 1019.22 1018.89 1018.49 1018.04 1017.57 1017.11 1016.68 1016.29 1015.93 1015.61 1015.30 1015.00 1014.71 1014.44 1014.22 1014.08 1014.06 1014.18 1014.46 1014.90 1015.45 1016.07 1016.71 1017.33 1017.88 1018.34 1018.70 1018.98 1019.21 1019.42 1019.63 1019.88 1020.18 1020.53 1020.94 1021.38 1021.85 1022.32 1022.76 1023.16 1023.50 1023.76 1023.93 1023.99
1019.54 1019.64 1019.71 1019.74 1019.68 1019.51 1019.24 1018.85 1018.40 1017.92 1017.45 1017.03 1016.66 1016.35 1016.08 1015.82 1015.55 1015.27 1014.97 1014.69 1014.45 1014.31 1014.31 1014.46 1014.79 1015.25 1015.81 1016.42 1017.01 1017.53 1017.95 1018.26 1018.47 1018.61 1018.71 1018.82 1018.97 1019.19 1019.48 1019.85 1020.27 1020.71 1021.17 1021.60 1021.99 1022.33 1022.59 1022.77 1022.87
1019.22 1019.44 1019.66 1019.83 1019.88 1019.80 1019.56 1019.19 1018.73 1018.22 1017.73 1017.30 1016.95 1016.68 1016.46 1016.27 1016.06 1015.81 1015.51 1015.20 1014.90 1014.67 1014.56 1014.60 1014.82 1015.19 1015.68 1016.22 1016.75 1017.22 1017.58 1017.82 1017.95 1017.98 1017.98 1017.99 1018.04 1018.16 1018.37 1018.66 1019.02 1019.42 1019.82 1020.22 1020.58 1020.90 1021.16 1021.37 1021.52
1018.97 1019.34 1019.70 1019.99 1020.14 1020.12 1019.90 1019.52 1019.02 1018.46 1017.93 1017.48 1017.13 1016.89 1016.73 1016.60 1016.45 1016.26 1015.99 1015.68 1015.35 1015.07 1014.88 1014.83 1014.94 1015.22 1015.62 1016.08 1016.53 1016.93 1017.22 1017.38 1017.41 1017.36 1017.26 1017.16 1017.11 1017.13 1017.25 1017.46 1017.73 1018.04 1018.38 1018.70 1019.02 1019.30 1019.57 1019.80 1020.01
1018.91 1019.40 1019.88 1020.27 1020.49 1020.50 1020.28 1019.86 1019.29 1018.67 1018.08 1017.59 1017.22 1016.99 1016.87 1016.79 1016.71 1016.58 1016.37 1016.08 1015.76 1015.45 1015.21 1015.09 1015.12 1015.30 1015.60 1015.97 1016.33 1016.64 1016.84 1016.92 1016.88 1016.74 1016.55 1016.37 1016.23 1016.17 1016.20 1016.31 1016.48 1016.70 1016.94 1017.18 1017.43 1017.67 1017.91 1018.16 1018.42
1019.05 1019.64 1020.22 1020.67 1020.93 1020.93 1020.68 1020.20 1019.56 1018.86 1018.20 1017.65 1017.25 1017.02 1016.91 1016.88 1016.85 1016.78 1016.63 1016.39 1016.09 1015.77 1015.51 1015.33 1015.29 1015.39 1015.59 1015.86 1016.13 1016.34 1016.46 1016.46 1016.35 1016.14 1015.90 1015.66 1015.46 1015.32 1015.27 1015.29 1015.37 1015.48 1015.62 1015.76 1015.92 1016.10 1016.30 1016.55 1016.84
1019.35 1020.02 1020.64 1021.13 1021.38 1021.35 1021.05 1020.50 1019.79 1019.01 1018.28 1017.68 1017.25 1017.00 1016.90 1016.90 1016.92 1016.90 1016.79 1016.60 1016.33 1016.03 1015.75 1015.54 1015.44 1015.46 1015.57 1015.73 1015.90 1016.03 1016.07 1016.00 1015.84 1015.59 1015.32 1015.04 1014.80 1014.62 1014.50 1014.45 1014.43 1014.45 1014.47 1014.51 1014.57 1014.66 1014.81 1015.02 1015.30
1019.73 1020.43 1021.06 1021.52 1021.74 1021.67 1021.31 1020.70 1019.93 1019.11 1018.34 1017.70 1017.25 1016.99 1016.89 1016.90 1016.95 1016.96 1016.90 1016.74 1016.50 1016.22 1015.93 1015.70 1015.54 1015.49 1015.51 1015.59 1015.67 1015.70 1015.68 1015.56 1015.35 1015.09 1014.80 1014.51 1014.25 1014.04 1013.89 1013.77 1013.68 1013.60 1013.52 1013.44 1013.39 1013.38 1013.44 1013.58 1013.82
1020.05 1020.74 1021.33 1021.74 1021.91 1021.78 1021.38 1020.74 1019.95 1019.12 1018.34 1017.70 1017.26 1017.00 1016.91 1016.92 1016.98 1017.01 1016.97 1016.83 1016.61 1016.34 1016.05 1015.80 1015.61 1015.49 1015.44 1015.43 1015.42 1015.38 1015.29 1015.13 1014.90 1014.62 1014.33 1014.04 1013.78 1013.56 1013.38 1013.21 1013.05 1012.88 1012.71 1012.52 1012.36 1012.23 1012.19 1012.24 1012.39
1020.21 1020.83 1021.35 1021.68 1021.78 1021.60 1021.17 1020.53 1019.78 1018.98 1018.26 1017.67 1017.26 1017.04 1016.96 1016.98 1017.04 1017.07 1017.03 1016.91 1016.70 1016.43 1016.14 1015.86 1015.64 1015.47 1015.35 1015.27 1015.18 1015.08 1014.92 1014.72 1014.46 1014.17 1013.88 1013.60 1013.34 1013.11 1012.90 1012.70 1012.48 1012.23 1011.96 1011.67 1011.40 1011.16 1011.00 1010.93 1010.99
1020.15 1020.66 1021.07 1021.31 1021.33 1021.11 1020.68 1020.09 1019.40 1018.71 1018.09 1017.60 1017.26 1017.09 1017.04 1017.07 1017.13 1017.15 1017.11 1016.98 1016.76 1016.49 1016.20 1015.91 1015.66 1015.45 1015.27 1015.12 1014.97 1014.79 1014.58 1014.33 1014.04 1013.73 1013.42 1013.13 1012.87 1012.62 1012.38 1012.14 1011.86 1011.55 1011.20 1010.82 1010.44 1010.10 1009.82 1009.65 1009.60
Thickness
5740 5740 5738 5726 5702 5681 5682 5697 5705 5707 5711 5719 5722 5719 5715 5712 5706 5705 5713 5713 5711 5706 5701 5697 5693 5690 5686 5684 5681 5679 5676 5674 5673 5671 5670 5669 5668 5666 5665 5665 5664 5663 5663 5663 5662 5662 5662 5663 5663
5742 5741 5730 5712 5687 5672 5681 5699 5703 5712 5718 5721 5722 5719 5714 5714 5716 5712 5710 5711 5710 5706 5702 5698 5694 5690 5686 5683 5680 5677 5675 5673 5671 5669 5667 5666 5664 5663 5662 5661 5659 5658 5658 5657 5657 5657 5657 5657 5657
5744 5741 5720 5700 5686 5679 5693 5703 5707 5716 5720 5721 5719 5722 5721 5720 5718 5714 5717 5714 5710 5705 5702 5698 5694 5689 5686 5682 5679 5676 5674 5671 5669 5667 5665 5663 5662 5660 5658 5657 5655 5654 5653 5652 5652 5651 5651 5651 5651
5740 5728 5714 5696 5692 5699 5707 5712 5712 5712 5717 5721 5719 5717 5722 5728 5725 5723 5720 5714 5709 5705 5701 5697 5693 5689 5685 5682 5679 5676 5673 5671 5668 5666 5664 5661 5659 5657 5655 5653 5652 5650 5649 5648 5647 5647 5646 5646 5646
5734 5716 5702 5691 5696 5708 5718 5721 5716 5712 5714 5718 5718 5714 5718 5727 5728 5724 5720 5714 5709 5704 5700 5696 5692 5688 5685 5681 5678 5675 5672 5670 5667 5665 5662 5660 5657 5655 5653 5651 5649 5647 5645 5644 5643 5642 5641 5641 5640
5720 5707 5689 5684 5695 5711 5722 5725 5717 5715 5716 5718 5715 5713 5719 5722 5722 5722 5719 5713 5708 5703 5698 5694 5691 5687 5684 5681 5677 5674 5671 5669 5666 5663 5661 5658 5655 5653 5650 5648 5646 5644 5642 5640 5639 5638 5637 5636 5635
5714 5700 5691 5693 5694 5704 5720 5725 5718 5717 5716 5717 5720 5713 5718 5717 5718 5718 5714 5708 5703 5700 5696 5693 5690 5686 5683 5680 5677 5674 5671 5668 5665 5662 5659 5657 5654 5651 5648 5645 5643 5641 5639 5637 5635 5633 5632 5631 5630
5721 5703 5698 5694 5696 5703 5720 5725 5726 5723 5723 5728 5723 5714 5715 5719 5715 5711 5707 5702 5698 5695 5693 5690 5688 5685 5682 5679 5675 5672 5669 5666 5663 5661 5658 5654 5652 5649 5646 5643 5640 5638 5635 5633 5631 5629 5627 5626 5625
5724 5696 5688 5695 5700 5707 5720 5720 5725 5727 5725 5726 5724 5723 5725 5720 5712 5706 5700 5696 5693 5692 5691 5689 5686 5684 5680 5677 5674 5671 5667 5664 5661 5658 5655 5652 5649 5646 5644 5640 5638 5635 5632 5630 5627 5625 5623 5621 5620
5711 5689 5695 5707 5712 5714 5717 5717 5720 5717 5715 5718 5720 5717 5715 5713 5710 5706 5703 5699 5695 5693 5691 5688 5686 5682 5679 5675 5672 5669 5666 5663 5660 5656 5653 5650 5646 5643 5640 5637 5634 5632 5629 5626 5623 5621 5619 5617 5615
5712 5700 5707 5714 5719 5718 5715 5715 5718 5713 5707 5713 5718 5717 5708 5706 5706 5706 5706 5706 5704 5698 5691 5689 5685 5681 5677 5673 5670 5667 5663 5660 5657 5654 5650 5646 5643 5639 5636 5633 5631 5629 5626 5623 5620 5617 5614 5612 5610
5713 5713 5716 5718 5721 5717 5715 5715 5713 5712 5717 5725 5725 5720 5708 5704 5704 5706 5706 5706 5702 5697 5693 5690 5685 5681 5677 5672 5668 5665 5661 5657 5654 5651 5647 5643 5639 5636 5633 5630 5627 5624 5622 5618 5615 5612 5609 5606 5604
5711 5713 5718 5718 5717 5716 5715 5711 5709 5713 5724 5723 5723 5716 5709 5708 5708 5709 5708 5705 5700 5697 5694 5690 5685 5681 5676 5671 5667 5663 5659 5655 5652 5648 5644 5641 5636 5632 5629 5625 5622 5619 5616 5613 5610 5607 5603 5601 5599
5713 5712 5710 5712 5713 5714 5711 5708 5707 5716 5724 5723 5720 5715 5712 5711 5711 5706 5702 5701 5700 5699 5695 5691 5686 5681 5676 5671 5666 5663 5658 5653 5648 5645 5641 5638 5633 5629 5624 5620 5617 5614 5611 5608 5605 5602 5598 5595 5592
5711 5704 5702 5709 5711 5712 5708 5699 5705 5719 5718 5716 5716 5716 5714 5713 5711 5708 5708 5707 5704 5701 5696 5690 5685 5679 5674 5670 5664 5659 5655 5650 5646 5642 5638 5634 5630 5625 5620 5616 5612 5609 5606 5603 5599 5595 5592 5589 5586
5699 5689 5686 5702 5706 5704 5700 5687 5707 5717 5713 5711 5712 5713 5714 5714 5711 5711 5709 5706 5704 5699 5694 5689 5683 5677 5672 5668 5662 5657 5652 5647 5643 5638 5634 5630 5625 5620 5615 5611 5608 5603 5599 5596 5592 5588 5585 5582 5579
5680 5673 5678 5689 5701 5696 5693 5688 5704 5710 5707 5705 5706 5708 5711 5712 5711 5710 5708 5707 5704 5699 5693 5686 5681 5676 5670 5664 5659 5654 5649 5644 5640 5634 5630 5625 5619 5614 5610 5606 5602 5597 5592 5589 5585 5582 5578 5575 5572
5672 5672 5673 5677 5692 5691 5683 5684 5698 5703 5702 5699 5699 5702 5705 5707 5708 5710 5710 5708 5703 5697 5691 5685 5678 5673 5666 5658 5651 5646 5642 5639 5635 5631 5627 5621 5616 5610 5605 5601 5596 5590 5585 5582 5578 5575 5571 5568 5564
5677 5672 5667 5674 5687 5687 5682 5682 5693 5697 5697 5695 5694 5695 5697 5699 5702 5705 5706 5704 5698 5692 5686 5681 5675 5669 5661 5652 5646 5641 5639 5635 5631 5628 5624 5619 5613 5607 5601 5597 5591 5585 5580 5577 5572 5567 5562 5558 5550
5674 5669 5666 5672 5681 5679 5676 5676 5687 5694 5693 5690 5688 5687 5687 5689 5692 5695 5695 5693 5689 5686 5681 5676 5671 5666 5659 5654 5648 5641 5636 5631 5627 5622 5618 5614 5609 5604 5598 5593 5588 5582 5576 5571 5566 5559 5553 5549 5541
5670 5667 5666 5666 5666 5670 5670 5670 5677 5685 5686 5683 5681 5680 5680 5680 5679 5681 5683 5682 5679 5676 5673 5670 5665 5660 5655 5649 5640 5632 5626 5622 5618 5615 5612 5610 5606 5601 5596 5591 5584 5578 5572 5568 5562 5554 5547 5542 5535
5660 5671 5670 5666 5655 5648 5655 5645 5663 5674 5676 5675 5672 5669 5669 5670 5670 5670 5670 5670 5668 5666 5664 5661 5656 5651 5646 5640 5633 5626 5621 5619 5619 5615 5611 5606 5601 5596 5592 5586 5580 5575 5568 5564 5558 5550 5543 5535 5530
5667 5669 5665 5661 5652 5643 5645 5640 5648 5664 5664 5666 5666 5664 5663 5662 5661 5660 5659 5658 5657 5655 5652 5649 5646 5642 5637 5631 5626 5620 5617 5617 5613 5607 5602 5599 5595 5590 5586 5581 5575 5570 5564 5560 5553 5546 5538 5531 5527
5666 5659 5653 5642 5635 5636 5647 5636 5644 5651 5660 5659 5659 5656 5654 5653 5651 5650 5648 5647 5645 5643 5641 5638 5635 5631 5627 5621 5616 5611 5609 5606 5602 5598 5594 5591 5588 5584 5580 5574 5569 5565 5560 5555 5548 5540 5533 5528 5522
5656 5642 5631 5634 5626 5634 5644 5640 5644 5660 5663 5657 5650 5647 5645 5643 5640 5639 5638 5637 5635 5633 5630 5627 5624 5621 5617 5612 5607 5604 5601 5597 5594 5592 5588 5584 5581 5577 5573 5567 5563 5559 5554 5548 5542 5534 5529 5522 5516
5651 5640 5625 5622 5616 5621 5634 5635 5644 5655 5655 5650 5644 5639 5637 5635 5631 5631 5630 5628 5625 5625 5622 5618 5615 5612 5609 5604 5600 5596 5592 5589 5586 5584 5581 5577 5575 5572 5567 5561 5556 5552 5547 5541 5534 5528 5523 5516 5510
5647 5636 5632 5617 5614 5611 5617 5628 5639 5645 5641 5637 5633 5630 5628 5626 5626 5624 5623 5621 5619 5616 5614 5610 5607 5604 5601 5597 5593 5589 5585 5581 5578 5576 5572 5568 5566 5563 5559 5553 5548 5544 5538 5533 5527 5521 5516 5510 5504
5645 5633 5618 5612 5604 5598 5606 5615 5623 5630 5629 5627 5624 5621 5621 5621 5619 5618 5615 5612 5610 5608 5605 5602 5599 5596 5594 5590 5586 5583 5579 5574 5570 5566 5562 5558 5555 5551 5547 5542 5538 5533 5529 5523 5517 5514 5509 5502 5498
5630 5628 5619 5605 5597 5589 5589 5607 5629 5629 5625 5620 5618 5617 5615 5613 5611 5608 5605 5603 5600 5598 5595 5593 5590 5587 5584 5581 5577 5572 5569 5564 5560 5555 5551 5547 5544 5539 5535 5530 5526 5522 5517 5512 5507 5504 5499 5494 5490
5629 5625 5613 5603 5598 5587 5581 5600 5629 5626 5621 5617 5614 5612 5609 5606 5603 5599 5596 5593 5590 5588 5585 5582 5580 5576 5574 5570 5566 5561 5557 5552 5547 5542 5539 5534 5530 5526 5521 5517 5513 5509 5505 5500 5495 5492 5488 5483 5479